Location: Brienzwiler
(46.7508°N, 8.1014°E)
Time: 00:10:08
(UTC+00:00)

Meteor 1-11 - Pass Details

Date: 05 July 2020
Orbit: 841 x 886 km, 81.2° (Epoch: 11 August)

Event Time Altitude Azimuth Distance (km) Brightness Sun altitude
Exits shadow 21:05:29 - 190° (S) 2,708 6.4 -13.1°
Reaches altitude 10° 21:06:06 10° 190° (S) 2,470 6.2 -13.1°
Maximum altitude 21:11:43 88° 280° (W) 864 4.2 -13.7°
Drops below altitude 10° 21:17:27 10° 11° (N) 2,517 7.4 -14.2°
Sets 21:19:55 0° 12° (NNE) 3,465 8.2 -14.4°
